STAR ONE D1

Last updated on Thu Nov 21 2024 00:02:43 GMT+0000 (Coordinated Universal Time)

1 41904U 16082B 24325.32618860 -.00000209 00000+0 00000+0 0 9995 2 41904 0.0230 80.1817 0002468 168.3749 204.7258 1.00272741 29023
UTC large
Height (km)
Speed (km/s)
/
Latitude / Longitude
Inclination (degrees)
Orbital Period (minutes)
Azimuth
Elevation
Range (km)
Doppler Factor

Next 0 passes for location: London (51.5072 / 0.1276)

Sorry there are no passes over London.